Regional Weather Roundup
Issued by NWS Newport/Morehead, NC

Current Version | Previous Version | Graphics & Text | Print | Product List | Glossary On
Versions: 1 2 3 4 5 6 7 8 9 10 11 12 13 14 15 16 17 18 19 20 21 22 23 24 25 26 27 28 29 30 31 32 33 34 35 36 37 38 39 40 41 42 43 44 45 46 47 48 49 50
000 ASUS42 KMHX 300122 RWRMHX WEATHER ROUNDUP FOR EASTERN NORTH CAROLINA NATIONAL WEATHER SERVICE NEWPORT/MOREHEAD CITY NC 900 PM EDT TUE JUL 29 2014 NOTE: "FAIR" INDICATES FEW OR NO CLOUDS BELOW 12,000 FEET WITH NO SIGNIFICANT WEATHER AND/OR OBSTRUCTIONS TO VISIBILITY NCZ015>017-031-032-045>047-102-103-300200- NORTH COAST CITY SKY/WX TMP DP RH WIND PRES REMARKS EDENTON CLEAR 70 64 82 E3 29.97R ELIZABETH CITY CLEAR 71 61 70 E8 29.97R KITTY HAWK CLEAR 73 62 69 NE6 29.96R MANTEO NOT AVBL $$ NCZ045>047-081-094-103-104-300200- CENTRAL COAST CITY SKY/WX TMP DP RH WIND PRES REMARKS FRISCO PTCLDY 75 65 70 NE8G16 29.96R SWANQUARTER N/A 72 N/A N/A E3 29.94R $$ NCZ095-097-098-100-101-300200- SOUTHERN COAST CITY SKY/WX TMP DP RH WIND PRES REMARKS BEAUFORT CLOUDY 78 69 73 NE6G16 29.95R CEDAR ISLAND N/A 77 N/A N/A NE14G22 30.00S JACKSONVILLE MOCLDY 77 64 64 N7 29.95R NEWPORT NOT AVBL PINEY ISLAND LGT RAIN 78 70 76 E15 29.95R WILMINGTON MOCLDY 74 71 91 E7 29.95R $$ NCZ011>013-027>030-043-044-078>080-089-090>093-098-300200- COASTAL PLAIN CITY SKY/WX TMP DP RH WIND PRES REMARKS AHOSKIE CLEAR 67 64 89 CALM 29.97R CLINTON CLEAR 74 64 70 CALM 29.95R ELIZABETHTOWN CLEAR 75 64 67 CALM 29.95R GOLDSBORO CLEAR 72 66 79 E3 29.94R GREENVILLE CLEAR 70 63 78 CALM 29.98R HAVELOCK PTCLDY 78 68 71 N9 29.96R KENANSVILLE PTCLDY 70 63 78 CALM 29.96R KINSTON PTCLDY 72 63 73 CALM 29.96R NEW BERN CLEAR 76 64 66 NE7 29.96R RICHLANDS CLEAR 72 63 73 CALM 29.96R ROANOKE RAPIDS NOT AVBL ROCKY MOUNT CLEAR 68 61 78 CALM 29.96R WASHINGTON CLEAR 69 63 80 CALM 29.97R WHITEVILLE CLEAR 74 67 80 CALM 29.94R $$ AMZ130-135-150-152-154-156-158-170-250-252-270-ANZ085-086-088-633-658-670-300200- MARINE OBSERVATIONS STATION/POSITION TIME TEMP WIND PRES WAVE SWELL AIR SEA DIR/SP/G HT/PER HT/PER (UTC) (F) (DEG/KT/KT) (MB) (FT/S) (FT/S) CHESAPEAKE LIGHT NOT AVBL BUOY 44014 0100 74 79 20/ 10/ 12 1014.5 2/ 8 2/ 8 DUCK 0100 74 74 50/ 11/ 12 1014.1 2E DUCK 0100 N/A 2/ 8 OREGON INLET 0100 74 78 40/ 9/ 15 1014.6 BUOY 44095 0100 79 N/A 3/ 8 20E OREGON INLET NOT AVBL HATTERAS CG 0100 76 82 60/ 9/ 14 1015.0 DIAMOND BUOY 0100 VRB 16/ 19 1013.7 4/ 7 2/ 8 CAPE LOOKOUT 0100 77 60/ 15/ 16 1013.8 BEAUFORT LAB 0100 77 83 70/ 7/ 9 1013.6 30 SE NEW RIVER 0100 79 81 80/ 12/ 12 1013.7 3/ 6 2/ 6 5 SE WRIGHTSVILL 0100 76 82 110/ 4/ 6 N/A BUOY 41002 0026 81 81 220/ 17/ 21 1013.9 6/ 7 2/ 8 BUOY 41004 0100 82 84 40/ 6/ 8 1012.5 2/ 5 2/ 5 $$

USA.gov is the U.S. government's official web portal to all federal, state and local government web resources and services.